TimeCDT,TemperatureF,Dew PointF,Humidity,Sea Level PressureIn,VisibilityMPH,Wind Direction,Wind SpeedMPH,Gust SpeedMPH,PrecipitationIn,Events,Conditions,WindDirDegrees,DateUTC
12:15 AM,32.4,22.3,66,30.02,10.0,ESE,13.8,20.7,N/A,,Overcast,110,2013-03-17 05:15:00
12:35 AM,32.0,22.1,67,30.02,10.0,East,13.8,18.4,N/A,,Overcast,100,2013-03-17 05:35:00
12:55 AM,32.0,22.1,67,30.02,10.0,ESE,11.5,-,N/A,,Overcast,120,2013-03-17 05:55:00
1:15 AM,31.5,22.6,70,30.01,10.0,ESE,11.5,-,N/A,,Mostly Cloudy,110,2013-03-17 06:15:00
1:35 AM,31.5,23.0,71,30.01,10.0,East,10.4,-,N/A,,Overcast,100,2013-03-17 06:35:00
1:55 AM,31.1,23.0,72,30.00,10.0,East,9.2,-,N/A,,Overcast,100,2013-03-17 06:55:00
2:15 AM,31.1,23.2,72,30.00,10.0,East,9.2,-,N/A,,Overcast,100,2013-03-17 07:15:00
2:35 AM,30.4,23.0,74,29.99,10.0,East,10.4,-,N/A,,Overcast,80,2013-03-17 07:35:00
2:55 AM,29.3,23.0,77,29.99,10.0,East,6.9,-,N/A,,Scattered Clouds,80,2013-03-17 07:55:00
3:15 AM,28.8,23.9,82,29.98,10.0,East,9.2,-,N/A,,Mostly Cloudy,90,2013-03-17 08:15:00
3:35 AM,28.8,23.9,82,29.98,10.0,East,9.2,-,N/A,,Overcast,100,2013-03-17 08:35:00
3:55 AM,28.0,23.7,84,29.97,10.0,ESE,6.9,-,N/A,,Mostly Cloudy,110,2013-03-17 08:55:00
4:15 AM,28.0,23.9,84,29.96,10.0,East,5.8,-,N/A,,Mostly Cloudy,100,2013-03-17 09:15:00
4:35 AM,27.5,23.7,86,29.96,10.0,East,9.2,-,N/A,,Overcast,100,2013-03-17 09:35:00
4:55 AM,28.0,24.1,85,29.96,10.0,ESE,6.9,-,N/A,,Overcast,110,2013-03-17 09:55:00
5:15 AM,28.0,23.9,84,29.96,10.0,ESE,8.1,-,N/A,,Overcast,110,2013-03-17 10:15:00
5:35 AM,28.0,23.9,84,29.96,10.0,ESE,8.1,-,N/A,,Overcast,120,2013-03-17 10:35:00
5:55 AM,28.2,24.4,86,29.96,10.0,SSE,6.9,-,N/A,,Overcast,150,2013-03-17 10:55:00
6:15 AM,28.4,24.6,86,29.96,10.0,SSE,5.8,-,N/A,,Overcast,150,2013-03-17 11:15:00
6:35 AM,28.4,24.8,86,29.96,10.0,SSE,5.8,-,N/A,,Overcast,160,2013-03-17 11:35:00
6:55 AM,28.8,25.2,86,29.96,10.0,SSE,9.2,-,N/A,,Overcast,150,2013-03-17 11:55:00
7:15 AM,28.9,25.3,86,29.95,10.0,SE,10.4,-,N/A,,Overcast,140,2013-03-17 12:15:00
7:35 AM,28.8,24.8,85,29.95,10.0,SSE,8.1,-,N/A,,Overcast,150,2013-03-17 12:35:00
7:55 AM,28.9,24.8,84,29.94,10.0,SE,9.2,-,N/A,,Overcast,130,2013-03-17 12:55:00
8:15 AM,28.9,24.8,84,29.93,7.0,SE,11.5,-,N/A,,Overcast,140,2013-03-17 13:15:00
8:35 AM,28.8,23.9,82,29.93,10.0,SE,10.4,-,N/A,,Overcast,130,2013-03-17 13:35:00
8:55 AM,28.9,24.4,83,29.93,10.0,SE,12.7,-,N/A,,Overcast,130,2013-03-17 13:55:00
9:15 AM,28.9,24.6,84,29.92,10.0,SE,12.7,-,N/A,,Overcast,130,2013-03-17 14:15:00
9:35 AM,29.3,24.8,83,29.91,10.0,SE,10.4,-,N/A,,Overcast,130,2013-03-17 14:35:00
9:55 AM,29.5,24.4,81,29.90,10.0,SE,13.8,18.4,N/A,,Overcast,140,2013-03-17 14:55:00
10:15 AM,29.8,24.6,81,29.90,7.0,SE,12.7,-,N/A,,Overcast,140,2013-03-17 15:15:00
10:35 AM,29.3,25.3,85,29.88,5.0,SE,16.1,19.6,N/A,,Overcast,130,2013-03-17 15:35:00
10:55 AM,29.1,26.1,88,29.88,3.0,SE,12.7,20.7,N/A,,Overcast,140,2013-03-17 15:55:00
11:15 AM,30.0,27.1,89,29.87,2.5,SE,16.1,-,N/A,,Overcast,140,2013-03-17 16:15:00
11:35 AM,30.2,26.6,86,29.86,4.0,SE,16.1,-,N/A,,Overcast,140,2013-03-17 16:35:00
11:55 AM,30.2,27.0,88,29.86,4.0,SSE,15.0,-,N/A,,Overcast,150,2013-03-17 16:55:00
12:15 PM,30.7,27.3,87,29.85,5.0,SSE,16.1,-,N/A,,Overcast,160,2013-03-17 17:15:00
12:35 PM,31.1,27.7,87,29.83,4.0,SE,13.8,-,N/A,,Overcast,140,2013-03-17 17:35:00
12:55 PM,31.5,28.0,87,29.83,5.0,SE,13.8,-,N/A,,Overcast,140,2013-03-17 17:55:00
1:15 PM,32.2,28.4,86,29.81,10.0,SSE,15.0,-,N/A,,Overcast,150,2013-03-17 18:15:00
1:35 PM,32.7,28.4,84,29.80,10.0,SSE,16.1,-,N/A,,Overcast,150,2013-03-17 18:35:00
1:55 PM,33.3,28.8,84,29.78,10.0,SSE,15.0,24.2,N/A,,Overcast,160,2013-03-17 18:55:00
2:15 PM,34.7,29.3,81,29.76,10.0,SSE,16.1,23.0,N/A,,Overcast,160,2013-03-17 19:15:00
2:35 PM,35.6,29.1,77,29.75,10.0,South,16.1,-,N/A,,Overcast,170,2013-03-17 19:35:00
2:55 PM,36.7,29.5,75,29.73,10.0,SSE,18.4,23.0,N/A,,Overcast,150,2013-03-17 19:55:00
3:15 PM,37.8,29.5,72,29.71,10.0,South,19.6,-,N/A,,Overcast,170,2013-03-17 20:15:00
3:35 PM,38.5,29.5,70,29.69,10.0,SSE,18.4,-,N/A,,Overcast,160,2013-03-17 20:35:00
3:55 PM,38.3,29.8,72,29.67,10.0,SSE,19.6,-,N/A,,Mostly Cloudy,160,2013-03-17 20:55:00
4:15 PM,37.8,29.7,73,29.67,10.0,SSE,16.1,21.9,N/A,,Mostly Cloudy,160,2013-03-17 21:15:00
4:35 PM,39.2,30.4,71,29.66,10.0,SSE,15.0,-,N/A,,Scattered Clouds,150,2013-03-17 21:35:00
4:55 PM,37.9,29.8,73,29.67,10.0,SSE,9.2,18.4,N/A,,Mostly Cloudy,160,2013-03-17 21:55:00
5:15 PM,37.8,30.2,74,29.66,10.0,SSE,12.7,-,N/A,,Overcast,160,2013-03-17 22:15:00
5:35 PM,37.4,30.2,75,29.64,10.0,SSE,13.8,-,N/A,,Overcast,150,2013-03-17 22:35:00
5:55 PM,37.4,30.6,76,29.63,10.0,SE,15.0,-,N/A,,Overcast,130,2013-03-17 22:55:00
6:15 PM,37.2,30.6,77,29.64,10.0,SE,6.9,-,N/A,,Overcast,130,2013-03-17 23:15:00
6:35 PM,37.0,30.6,77,29.65,10.0,ESE,5.8,-,N/A,,Mostly Cloudy,120,2013-03-17 23:35:00
6:55 PM,37.4,30.9,77,29.65,10.0,SE,4.6,-,N/A,,Overcast,130,2013-03-17 23:55:00
7:15 PM,36.7,30.6,78,29.66,10.0,SE,5.8,-,N/A,,Mostly Cloudy,140,2013-03-18 00:15:00
7:35 PM,36.7,30.9,80,29.66,10.0,SE,5.8,-,N/A,,Overcast,130,2013-03-18 00:35:00
7:55 PM,37.0,30.9,79,29.67,10.0,SE,8.1,-,N/A,,Overcast,140,2013-03-18 00:55:00
8:15 PM,37.4,31.3,79,29.71,10.0,Calm,Calm,-,N/A,,Drizzle,0,2013-03-18 01:15:00
8:35 PM,36.9,32.0,83,29.70,7.0,SE,5.8,-,N/A,Rain,Light Rain,140,2013-03-18 01:35:00
8:55 PM,36.5,32.7,86,29.70,10.0,SSE,9.2,-,N/A,Rain,Light Rain,150,2013-03-18 01:55:00
9:15 PM,36.0,32.7,88,29.70,4.0,SE,10.4,-,0.03,Rain,Light Rain,140,2013-03-18 02:15:00
9:35 PM,35.1,32.4,90,29.70,4.0,SE,10.4,-,0.04,Rain,Light Rain,140,2013-03-18 02:35:00
9:55 PM,34.7,32.4,91,29.69,5.0,SE,11.5,-,0.06,Rain,Rain,140,2013-03-18 02:55:00
10:15 PM,34.3,32.2,92,29.67,7.0,SSE,16.1,-,N/A,,Mostly Cloudy,150,2013-03-18 03:15:00
10:35 PM,33.8,32.0,93,29.67,7.0,SSE,16.1,-,N/A,,Scattered Clouds,160,2013-03-18 03:35:00
10:55 PM,33.8,32.0,93,29.67,5.0,South,15.0,-,N/A,,Mostly Cloudy,170,2013-03-18 03:55:00
11:15 PM,33.8,32.0,93,29.68,5.0,South,13.8,-,N/A,,Overcast,170,2013-03-18 04:15:00
11:35 PM,33.8,32.2,94,29.69,5.0,South,16.1,-,N/A,,Overcast,190,2013-03-18 04:35:00
11:55 PM,33.8,32.4,94,29.71,5.0,SSW,10.4,19.6,N/A,,Overcast,210,2013-03-18 04:55:00